| time (UTC) | temp C | wind direction | speed KPH | gust KPH | rain 1hr cm | rain 24hr cm | rain mn cm | humidity % | barometer mb |
| 20260506070148 | 15 | 210 | 3.2 | 6.4 | 0.00 | 0.00 | 0.00 | 84 | 1016.7 |
| 20260506061648 | 15 | 208 | 3.2 | 6.4 | 0.00 | 0.00 | 0.00 | 83 | 1016.6 |
| 20260506051348 | 15 | 189 | 1.6 | 4.8 | 0.00 | 0.00 | 0.00 | 83 | 1016.3 |
| 20260506050448 | 15 | 190 | 3.2 | 4.8 | 0.00 | 0.00 | 0.00 | 82 | 1016.2 |
| 20260506044648 | 15 | 175 | 4.8 | 8.0 | 0.00 | 0.00 | 0.00 | 82 | 1016.0 |
| 20260506043748 | 15 | 169 | 4.8 | 6.4 | 0.00 | 0.00 | 0.00 | 82 | 1015.9 |
| 20260506042849 | 15 | 159 | 3.2 | 4.8 | 0.00 | 0.00 | 0.00 | 83 | 1016.0 |
| 20260506041948 | 15 | 159 | 1.6 | 3.2 | 0.00 | 0.00 | 0.00 | 83 | 1015.8 |
| 20260506041048 | 15 | 158 | 0.0 | 3.2 | 0.00 | 0.00 | 0.00 | 83 | 1015.7 |
| 20260506035248 | 15 | 33 | 1.6 | 4.8 | 0.00 | 0.00 | 0.00 | 81 | 1015.6 |
| 20260506034349 | 16 | 17 | 1.6 | 1.6 | 0.00 | 0.00 | 0.00 | 80 | 1015.5 |
| 20260506033448 | 16 | 17 | 0.0 | 3.2 | 0.00 | 0.00 | 0.00 | 78 | 1015.4 |
| 20260506032548 | 16 | 18 | 1.6 | 3.2 | 0.00 | 0.00 | 0.00 | 76 | 1015.3 |
| 20260506030748 | 16 | 16 | 1.6 | 3.2 | 0.00 | 0.00 | 0.00 | 77 | 1015.2 |
| 20260506024948 | 16 | 12 | 1.6 | 4.8 | 0.00 | 0.00 | 0.00 | 77 | 1015.0 |
| 20260506024048 | 16 | 359 | 1.6 | 3.2 | 0.00 | 0.00 | 0.00 | 77 | 1015.0 |
| 20260506023148 | 16 | 308 | 1.6 | 4.8 | 0.00 | 0.00 | 0.00 | 79 | 1014.9 |
| 20260506022248 | 16 | 315 | 3.2 | 4.8 | 0.00 | 0.00 | 0.00 | 78 | 1014.8 |
| 20260506020448 | 16 | 335 | 3.2 | 6.4 | 0.00 | 0.00 | 0.00 | 78 | 1014.9 |
| 20260506014648 | 16 | 327 | 6.4 | 9.7 | 0.00 | 0.00 | 0.00 | 78 | 1015.0 |
| 20260506013748 | 16 | 323 | 6.4 | 9.7 | 0.00 | 0.00 | 0.00 | 78 | 1014.9 |
| 20260506012848 | 16 | 323 | 6.4 | 9.7 | 0.00 | 0.00 | 0.00 | 78 | 1014.9 |
| 20260506011948 | 16 | 323 | 6.4 | 9.7 | 0.00 | 0.00 | 0.00 | 78 | 1014.9 |
| 20260506011049 | 16 | 325 | 6.4 | 11.3 | 0.00 | 0.00 | 0.00 | 78 | 1014.8 |
| 20260506004348 | 16 | 327 | 6.4 | 11.3 | 0.00 | 0.00 | 0.00 | 77 | 1015.0 |
| 20260506003448 | 16 | 315 | 4.8 | 8.0 | 0.00 | 0.00 | 0.00 | 77 | 1015.0 |
| 20260506002548 | 16 | 322 | 4.8 | 9.7 | 0.00 | 0.00 | 0.00 | 77 | 1015.0 |
| 20260506001648 | 16 | 320 | 6.4 | 9.7 | 0.00 | 0.00 | 0.00 | 77 | 1015.1 |
| 20260505235848 | 16 | 329 | 8.0 | 11.3 | 0.00 | 0.00 | 0.00 | 76 | 1015.3 |
| 20260505234948 | 16 | 332 | 8.0 | 12.9 | 0.00 | 0.00 | 0.00 | 76 | 1015.3 |
| 20260505233148 | 16 | 308 | 6.4 | 11.3 | 0.00 | 0.00 | 0.00 | 75 | 1015.3 |
| 20260505231349 | 16 | 279 | 6.4 | 11.3 | 0.00 | 0.00 | 0.00 | 74 | 1015.4 |
| 20260505225548 | 16 | 323 | 8.0 | 12.9 | 0.00 | 0.00 | 0.00 | 75 | 1015.3 |
| 20260505224648 | 16 | 331 | 8.0 | 12.9 | 0.00 | 0.00 | 0.00 | 75 | 1015.4 |
| 20260505223748 | 16 | 326 | 6.4 | 11.3 | 0.00 | 0.00 | 0.00 | 76 | 1015.5 |
| 20260505222848 | 16 | 313 | 6.4 | 9.7 | 0.00 | 0.00 | 0.00 | 76 | 1015.5 |
| 20260505221948 | 16 | 324 | 8.0 | 12.9 | 0.00 | 0.00 | 0.00 | 78 | 1015.6 |
| 20260505215249 | 16 | 337 | 4.8 | 9.7 | 0.00 | 0.00 | 0.00 | 76 | 1015.6 |
| 20260505214348 | 16 | 326 | 6.4 | 11.3 | 0.00 | 0.00 | 0.00 | 76 | 1015.7 |
| 20260505210748 | 16 | 272 | 4.8 | 11.3 | 0.00 | 0.00 | 0.00 | 76 | 1016.0 |
| 20260505205848 | 16 | 318 | 3.2 | 8.0 | 0.00 | 0.00 | 0.00 | 77 | 1016.0 |
| 20260505204949 | 15 | 324 | 6.4 | 11.3 | 0.00 | 0.00 | 0.00 | 80 | 1016.2 |
| 20260505204048 | 15 | 335 | 4.8 | 9.7 | 0.00 | 0.00 | 0.00 | 79 | 1016.2 |
| 20260505203148 | 15 | 42 | 4.8 | 11.3 | 0.00 | 0.00 | 0.00 | 79 | 1016.3 |
| 20260505201348 | 15 | 358 | 4.8 | 9.7 | 0.00 | 0.00 | 0.00 | 80 | 1016.3 |
| 20260505200448 | 15 | 336 | 4.8 | 11.3 | 0.00 | 0.00 | 0.00 | 78 | 1016.3 |
| 20260505195548 | 15 | 8 | 3.2 | 8.0 | 0.00 | 0.00 | 0.00 | 78 | 1016.4 |
| 20260505194647 | 16 | 47 | 1.6 | 4.8 | 0.00 | 0.00 | 0.00 | 77 | 1016.3 |
| 20260505193747 | 15 | 259 | 1.6 | 4.8 | 0.00 | 0.00 | 0.00 | 78 | 1016.4 |
| 20260505192848 | 15 | 156 | 1.6 | 4.8 | 0.00 | 0.00 | 0.00 | 78 | 1016.5 |
| 20260505191948 | 15 | 270 | 1.6 | 6.4 | 0.00 | 0.00 | 0.00 | 81 | 1016.5 |
| 20260505190148 | 14 | 230 | 3.2 | 4.8 | 0.00 | 0.00 | 0.00 | 81 | 1016.4 |
| 20260505184348 | 14 | 240 | 4.8 | 8.0 | 0.00 | 0.00 | 0.00 | 81 | 1016.5 |
| 20260505182548 | 13 | 265 | 3.2 | 8.0 | 0.00 | 0.00 | 0.00 | 81 | 1016.5 |
| 20260505181648 | 14 | 239 | 3.2 | 6.4 | 0.00 | 0.00 | 0.00 | 82 | 1016.4 |
| 20260505180748 | 14 | 265 | 3.2 | 6.4 | 0.00 | 0.00 | 0.00 | 82 | 1016.4 |
| 20260505175847 | 13 | 272 | 3.2 | 6.4 | 0.00 | 0.00 | 0.00 | 82 | 1016.4 |
| 20260505174947 | 13 | 238 | 3.2 | 6.4 | 0.00 | 0.00 | 0.00 | 82 | 1016.4 |
| 20260505174047 | 13 | 230 | 4.8 | 9.7 | 0.00 | 0.00 | 0.00 | 82 | 1016.4 |
| 20260505173148 | 13 | 234 | 3.2 | 6.4 | 0.00 | 0.00 | 0.00 | 83 | 1016.3 |
| 20260505172248 | 13 | 236 | 3.2 | 8.0 | 0.00 | 0.00 | 0.00 | 83 | 1016.2 |
| 20260505171347 | 13 | 297 | 3.2 | 8.0 | 0.00 | 0.00 | 0.00 | 83 | 1016.2 |
| 20260505170447 | 13 | 244 | 3.2 | 8.0 | 0.00 | 0.00 | 0.00 | 84 | 1016.2 |
| 20260505164647 | 13 | 223 | 3.2 | 4.8 | 0.00 | 0.00 | 0.00 | 86 | 1016.1 |
| 20260505163749 | 13 | 198 | 3.2 | 6.4 | 0.00 | 0.00 | 0.00 | 87 | 1016.0 |
| 20260505162847 | 12 | 212 | 3.2 | 6.4 | 0.00 | 0.00 | 0.00 | 87 | 1016.0 |
| 20260505161947 | 12 | 223 | 3.2 | 6.4 | 0.00 | 0.00 | 0.00 | 88 | 1016.0 |
| 20260505160147 | 12 | 237 | 6.4 | 9.7 | 0.00 | 0.00 | 0.00 | 88 | 1016.0 |
| 20260505152547 | 12 | 224 | 6.4 | 11.3 | 0.00 | 0.00 | 0.00 | 89 | 1015.9 |
| 20260505151647 | 12 | 235 | 4.8 | 8.0 | 0.00 | 0.00 | 0.00 | 90 | 1015.8 |
| 20260505150747 | 12 | 231 | 4.8 | 8.0 | 0.00 | 0.00 | 0.00 | 90 | 1015.8 |
| 20260505140447 | 11 | 177 | 4.8 | 8.0 | 0.00 | 0.00 | 0.00 | 90 | 1015.1 |
| 20260505130148 | 12 | 227 | 6.4 | 9.7 | 0.00 | 0.00 | 0.00 | 87 | 1014.8 |
| 20260505124347 | 12 | 233 | 4.8 | 8.0 | 0.00 | 0.00 | 0.00 | 86 | 1014.7 |
| 20260505123447 | 12 | 239 | 4.8 | 8.0 | 0.00 | 0.00 | 0.00 | 86 | 1014.7 |
| 20260505122547 | 12 | 227 | 4.8 | 8.0 | 0.00 | 0.00 | 0.00 | 86 | 1014.7 |
| 20260505121647 | 12 | 227 | 6.4 | 11.3 | 0.00 | 0.00 | 0.00 | 86 | 1014.7 |
| 20260505120747 | 12 | 234 | 6.4 | 11.3 | 0.00 | 0.00 | 0.00 | 86 | 1014.6 |
| 20260505115847 | 12 | 226 | 8.0 | 12.9 | 0.00 | 0.00 | 0.00 | 85 | 1014.6 |
| 20260505114947 | 12 | 230 | 8.0 | 12.9 | 0.00 | 0.00 | 0.00 | 85 | 1014.6 |
| 20260505114047 | 12 | 235 | 6.4 | 12.9 | 0.00 | 0.00 | 0.00 | 86 | 1014.6 |
| 20260505113147 | 12 | 229 | 8.0 | 12.9 | 0.00 | 0.00 | 0.00 | 86 | 1014.6 |
| 20260505112247 | 12 | 227 | 8.0 | 11.3 | 0.00 | 0.00 | 0.00 | 85 | 1014.6 |
| 20260505111347 | 12 | 230 | 6.4 | 12.9 | 0.00 | 0.00 | 0.00 | 85 | 1014.6 |
| 20260505110448 | 12 | 231 | 4.8 | 11.3 | 0.00 | 0.00 | 0.00 | 85 | 1014.4 |
| 20260505101947 | 12 | 232 | 6.4 | 11.3 | 0.00 | 0.00 | 0.00 | 85 | 1014.0 |
| 20260505101047 | 12 | 229 | 8.0 | 12.9 | 0.00 | 0.00 | 0.00 | 84 | 1014.0 |
| 20260505095247 | 13 | 229 | 8.0 | 12.9 | 0.00 | 0.00 | 0.00 | 84 | 1013.9 |
| 20260505094347 | 13 | 235 | 8.0 | 12.9 | 0.00 | 0.00 | 0.00 | 84 | 1013.9 |
| 20260505093447 | 13 | 235 | 8.0 | 11.3 | 0.00 | 0.00 | 0.00 | 84 | 1013.8 |
| 20260505092547 | 13 | 232 | 8.0 | 14.5 | 0.00 | 0.00 | 0.00 | 84 | 1013.7 |
| 20260505091647 | 13 | 233 | 9.7 | 16.1 | 0.00 | 0.00 | 0.00 | 84 | 1013.6 |
| 20260505090747 | 13 | 230 | 9.7 | 14.5 | 0.00 | 0.00 | 0.00 | 84 | 1013.6 |
| 20260505084947 | 13 | 236 | 9.7 | 14.5 | 0.00 | 0.00 | 0.00 | 83 | 1013.5 |
| 20260505084047 | 13 | 237 | 9.7 | 17.7 | 0.00 | 0.00 | 0.00 | 82 | 1013.5 |
| 20260505082247 | 13 | 241 | 8.0 | 12.9 | 0.00 | 0.00 | 0.00 | 82 | 1013.4 |
| 20260505081347 | 13 | 239 | 9.7 | 16.1 | 0.00 | 0.00 | 0.00 | 82 | 1013.3 |
| 20260505075547 | 13 | 238 | 9.7 | 17.7 | 0.00 | 0.00 | 0.00 | 82 | 1013.2 |
| 20260505074647 | 14 | 233 | 6.4 | 11.3 | 0.00 | 0.00 | 0.00 | 81 | 1013.1 |
| 20260505073747 | 14 | 238 | 8.0 | 12.9 | 0.00 | 0.00 | 0.00 | 80 | 1012.9 |
| 20260505072847 | 14 | 231 | 8.0 | 12.9 | 0.00 | 0.00 | 0.00 | 80 | 1012.8 |
| 20260505071047 | 15 | 239 | 9.7 | 16.1 | 0.00 | 0.00 | 0.00 | 78 | 1012.5 |